Regional Weather Roundup
Issued by NWS

Home | Current Version | Previous Version | Text Only | Print | Product List | Glossary On
Versions: 1 2 3 4 5 6 7 8 9 10 11 12 13 14 15 16 17 18 19 20 21 22 23 24 25 26 27 28 29 30 31 32 33 34 35 36 37 38 39 40 41 42 43 44 45 46 47 48 49 50
000
ASUS43 KOAX 190302
RWRNE

WEATHER ROUNDUP FOR NEBRASKA
NATIONAL WEATHER SERVICE OMAHA NE
1000 PM CDT WED OCT 18 2017

NOTES: SATELLITE DATA IS BEING USED TO AUGMENT CLOUD COVER ABOVE
       12000 FEET.
       "FAIR" INDICATES FEW OR NO CLOUDS BELOW 12,000 FEET WITH NO
       SIGNIFICANT WEATHER AND/OR OBSTRUCTIONS TO VISIBILITY.


NEZ001>004-019>022-054>056-190400-
NEBRASKA PANHANDLE

CITY           SKY/WX    TMP DP  RH WIND       PRES   REMARKS
SCOTTSBLUFF    CLEAR     45  30  55 E8        30.08R
ALLIANCE       CLOUDY    42  30  62 S12       30.07S
CHADRON        CLOUDY    62  27  26 S23       30.01S
GORDON         FAIR      50  31  48 CALM      30.06R
KIMBALL        CLEAR     45  27  49 S8        30.13S
SIDNEY         CLEAR     48  31  51 SE10      30.12S
$$

NEZ057>060-069>072-079>082-190400-
SOUTHWEST NEBRASKA

CITY           SKY/WX    TMP DP  RH WIND       PRES   REMARKS
NORTH PLATTE   CLOUDY    46  35  65 CALM      30.10F
IMPERIAL       CLEAR     47  31  53 SE7       30.11S
LEXINGTON      CLOUDY    45  38  76 NW6       30.11R
MCCOOK         CLEAR     52  35  52 E5        30.10F
OGALLALA       CLEAR     50  34  54 CALM      30.10S
$$

NEZ005>010-023>029-035>040-094-190400-
NORTH CENTRAL NEBRASKA

CITY           SKY/WX    TMP DP  RH WIND       PRES   REMARKS
VALENTINE      CLOUDY    46  31  55 S6        30.07S
AINSWORTH      CLEAR     42  36  77 S6        30.08S
BROKEN BOW     CLEAR     42  36  79 CALM      30.09S
O`NEILL        CLOUDY    50  35  57 CALM      30.08S
ORD            CLEAR     45  35  68 CALM      30.08R
THEDFORD       CLEAR     46  34  61 SE5       30.10S
$$

NEZ041-046>049-061>064-073>077-083>087-190400-
SOUTH CENTRAL NEBRASKA

CITY           SKY/WX    TMP DP  RH WIND       PRES   REMARKS
GRAND ISLAND   CLEAR     50  41  71 NW3       30.08R
AURORA         CLEAR     52  38  59 N5        30.06S
HASTINGS       CLEAR     53  38  56 CALM      30.08S
HEBRON         CLEAR     58  43  58 CALM      30.05R
HOLDREGE       CLEAR     48  38  68 N3        30.09R
KEARNEY        CLEAR     51  37  58 NW5       30.09R
YORK           CLEAR     54  39  58 CALM      30.06R
$$

NEZ011>018-030>034-042>045-190400-
NORTHEAST NEBRASKA

CITY           SKY/WX    TMP DP  RH WIND       PRES   REMARKS
NORFOLK        CLEAR     47  38  71 NW3       30.06R
ALBION         CLEAR     46  39  78 NW5       30.08R
BLAIR          CLEAR     61  45  56 N7        30.03S
FREMONT        CLEAR     59  42  52 N3        30.04S
TEKAMAH        CLEAR     48  43  82 NW6       30.04R
WAYNE          CLEAR     44  40  86 CALM      30.06S
$$

NEZ050>053-065>068-078-088>093-190400-
SOUTHEAST NEBRASKA

CITY           SKY/WX    TMP DP  RH WIND       PRES   REMARKS
LINCOLN        CLEAR     56  43  61 CALM      30.05R
OMAHA EPPLEY   CLEAR     57  46  66 NW5       30.03R
BEATRICE       CLEAR     55  49  79 CALM      30.03R
FALLS CITY     CLEAR     56  49  77 CALM      30.02R
NEBRASKA CITY  CLEAR     60  49  68 SW5       30.03R
PLATTSMOUTH    CLEAR     59  51  73 N3        30.03R
$$

NEZ044-045-051>053-067-190400-
OMAHA AREA

CITY           SKY/WX    TMP DP  RH WIND       PRES   REMARKS
OMAHA EPPLEY   CLEAR     57  46  66 NW5       30.03R
BLAIR          CLEAR     61  45  56 N7        30.03S
FREMONT        CLEAR     59  42  52 N3        30.04S
MILLARD        CLEAR     62  47  59 CALM      30.03R
OFFUTT AFB     CLEAR     63  48  58 NE8       30.02R
PLATTSMOUTH    CLEAR     59  51  73 N3        30.03R
WAHOO          FAIR      55  42  63 N6        30.04R
$$



USA.gov is the U.S. government's official web portal to all federal, state and local government web resources and services.